Date String (YYYY-MM-DD hh:mm:ss) UTC,Instrument flags,Ambient pressure (hPa),Sample flow (lpm),Bypass flow (lpm),Sample temperature (°C),Ambient temperature (°C),ASC tube jacket temperature (°C),LED temperature (°C),Box temperature (°C),Sample RH (%),Span deviation,Mass concentration (μg/m³),Mass concentration (μg/m³),Mass concentration (μg/m³)
DateTimeUTC,F1_M11,P_M11,Q1_M11,Q2_M11,T1_M11,T2_M11,T3_M11,T4_M11,T5_M11,U1_M11,ZSPAN_M11,X0_M11,X2_M11,X1_M11
2021-09-20 08:00:00,,0823.4,4.99,0.00,28.9,28.0,00.0,38.2,30.7,21.9,0003.6,0031.05,0012.56,0009.37
2021-09-20 08:01:00,,0823.3,5.00,0.00,28.9,28.1,00.0,38.2,30.6,21.9,0003.6,0031.90,0012.58,0009.35
2021-09-20 08:02:00,,0823.3,5.01,0.00,28.9,28.1,00.0,38.1,30.6,21.9,0003.6,0032.37,0012.61,0009.33
2021-09-20 08:03:00,,0823.2,5.00,0.00,28.9,28.1,00.0,38.1,30.6,21.9,0003.4,0032.10,0012.59,0009.34
2021-09-20 08:04:00,,0823.2,5.00,0.00,28.9,28.1,00.0,38.1,30.6,21.9,0003.3,0030.83,0012.55,0009.34
2021-09-20 08:05:00,,0823.3,5.00,0.00,28.9,28.1,00.0,38.1,30.6,21.9,0003.3,0028.90,0012.55,0009.33
2021-09-20 08:06:00,,0823.4,5.01,0.00,28.8,28.0,00.0,38.1,30.6,21.8,0003.4,0028.16,0012.47,0009.30
2021-09-20 08:07:00,,0823.4,5.01,0.00,28.8,28.0,00.0,38.1,30.5,21.7,0003.5,0028.18,0012.39,0009.24
2021-09-20 08:08:00,,0823.4,4.99,0.00,28.8,27.9,00.0,38.1,30.5,21.7,0003.4,0027.24,0012.34,0009.20
2021-09-20 08:09:00,,0823.4,5.00,0.00,28.8,27.9,00.0,38.1,30.5,21.7,0003.4,0029.03,0012.41,0009.17
2021-09-20 08:10:00,,0823.3,5.02,0.00,28.8,27.9,00.0,38.1,30.4,21.8,0003.7,0031.06,0012.44,0009.14
2021-09-20 08:11:00,,0823.3,5.00,0.00,28.7,27.9,00.0,38.0,30.4,21.8,0003.6,0032.28,0012.28,0009.08
2021-09-20 08:12:00,,0823.4,4.99,0.00,28.7,27.8,00.0,38.0,30.4,21.8,0003.6,0032.30,0012.22,0009.02
2021-09-20 08:13:00,,0823.5,5.01,0.00,28.7,27.8,00.0,38.0,30.4,21.9,0003.7,0031.76,0012.18,0008.97
2021-09-20 08:14:00,,0823.6,5.00,0.00,28.7,27.8,00.0,38.0,30.4,21.9,0003.7,0032.11,0012.19,0008.93
2021-09-20 08:15:00,,0823.7,4.99,0.00,28.7,27.8,00.0,38.0,30.4,21.9,0003.8,0032.15,0012.24,0008.90
2021-09-20 08:16:00,,0823.6,5.01,0.00,28.7,27.8,00.0,38.0,30.4,21.9,0003.8,0032.14,0012.19,0008.86
2021-09-20 08:17:00,,0823.7,5.00,0.00,28.7,27.8,00.0,38.0,30.4,21.9,0003.6,0032.76,0012.16,0008.82
2021-09-20 08:18:00,,0823.7,5.00,0.00,28.7,27.8,00.0,37.9,30.4,21.8,0003.5,0033.92,0012.11,0008.78
2021-09-20 08:19:00,,0823.7,5.00,0.00,28.6,27.7,00.0,37.9,30.3,21.8,0003.6,0035.70,0012.12,0008.72
2021-09-20 08:20:00,,0823.7,4.99,0.00,28.6,27.7,00.0,37.9,30.4,21.9,0003.7,0034.46,0012.06,0008.66
2021-09-20 08:21:00,,0823.7,5.00,0.00,28.6,27.7,00.0,37.9,30.3,21.8,0003.6,0033.97,0011.94,0008.60
2021-09-20 08:22:00,,0823.5,5.01,0.00,28.6,27.7,00.0,37.9,30.3,21.7,0003.7,0032.61,0011.86,0008.55
2021-09-20 08:23:00,,0823.4,4.99,0.00,28.6,27.7,00.0,37.9,30.3,21.8,0003.5,0033.41,0011.81,0008.48
2021-09-20 08:24:00,,0823.4,5.00,0.00,28.6,27.7,00.0,37.9,30.2,21.8,0003.4,0034.04,0011.76,0008.41
2021-09-20 08:25:00,,0823.4,5.01,0.00,28.5,27.7,00.0,37.9,30.2,21.7,0003.3,0034.08,0011.68,0008.32
2021-09-20 08:26:00,,0823.5,4.98,0.00,28.5,27.7,00.0,37.8,30.2,21.9,0003.1,0034.48,0011.63,0008.27
2021-09-20 08:27:00,,0823.6,5.01,0.00,28.5,27.7,00.0,37.8,30.2,21.9,0002.8,0035.18,0011.61,0008.22
2021-09-20 08:28:00,,0823.7,5.01,0.00,28.5,27.7,00.0,37.8,30.3,21.8,0002.6,0035.80,0011.65,0008.18
2021-09-20 08:29:00,,0823.7,4.99,0.00,28.5,27.7,00.0,37.8,30.2,21.8,0002.5,0035.16,0011.66,0008.14
2021-09-20 08:30:00,,0823.8,5.00,0.00,28.5,27.8,00.0,37.8,30.3,21.9,0002.8,0033.63,0011.55,0008.11
2021-09-20 08:31:00,,0823.8,5.01,0.00,28.5,27.8,00.0,37.8,30.3,21.9,0003.0,0033.78,0011.43,0008.06
2021-09-20 08:32:00,,0823.9,5.00,0.00,28.5,27.8,00.0,37.8,30.2,21.9,0003.1,0033.32,0011.42,0008.02
2021-09-20 08:33:00,,0823.9,5.01,0.00,28.5,27.8,00.0,37.8,30.3,22.0,0003.2,0034.52,0011.46,0007.99
2021-09-20 08:34:00,,0824.0,5.01,0.00,28.5,27.8,00.0,37.8,30.3,22.0,0003.6,0033.67,0011.47,0007.97
2021-09-20 08:35:00,,0824.0,4.99,0.00,28.6,27.9,00.0,37.8,30.3,21.8,0003.6,0033.85,0011.42,0007.96
2021-09-20 08:36:00,,0824.0,5.00,0.00,28.6,27.9,00.0,37.8,30.3,21.9,0003.7,0034.80,0011.36,0007.93
2021-09-20 08:37:00,,0824.0,5.00,0.00,28.6,27.9,00.0,37.8,30.4,21.9,0003.6,0034.35,0011.32,0007.90
2021-09-20 08:38:00,,0824.0,5.02,0.00,28.6,27.9,00.0,37.8,30.4,21.8,0003.8,0033.35,0011.27,0007.87
2021-09-20 08:39:00,,0824.0,5.00,0.00,28.6,28.0,00.0,37.8,30.4,21.6,0004.1,0033.62,0011.13,0007.79
2021-09-20 08:40:00,,0824.1,4.99,0.00,28.6,28.0,00.0,37.8,30.5,21.6,0004.4,0033.85,0011.02,0007.73
2021-09-20 08:41:00,,0824.1,5.00,0.00,28.7,28.0,00.0,37.8,30.5,21.5,0004.2,0033.53,0010.97,0007.67
2021-09-20 08:42:00,,0824.2,5.00,0.00,28.7,28.0,00.0,37.8,30.5,21.3,0003.8,0035.61,0010.92,0007.60
2021-09-20 08:43:00,,0824.2,5.01,0.00,28.7,28.1,00.0,37.8,30.5,21.2,0003.5,0037.03,0010.77,0007.53
2021-09-20 08:44:00,,0824.2,4.99,0.00,28.7,28.1,00.0,37.8,30.6,21.3,0003.2,0036.67,0010.68,0007.45
2021-09-20 08:45:00,,0824.2,5.01,0.00,28.7,28.1,00.0,37.8,30.6,21.4,0002.6,0036.71,0010.63,0007.38
2021-09-20 08:46:00,,0824.2,5.01,0.00,28.8,28.1,00.0,37.8,30.6,21.3,0002.5,0035.85,0010.60,0007.33
2021-09-20 08:47:00,,0824.2,5.01,0.00,28.8,28.2,00.0,37.9,30.6,21.2,0002.4,0034.59,0010.55,0007.28
2021-09-20 08:48:00,,0824.1,4.99,0.00,28.8,28.2,00.0,37.9,30.7,21.1,0002.9,0034.99,0010.46,0007.22
2021-09-20 08:49:00,,0824.1,5.01,0.00,28.8,28.2,00.0,37.9,30.7,21.2,0002.7,0035.92,0010.43,0007.17
2021-09-20 08:50:00,,0824.1,5.00,0.00,28.9,28.2,00.0,37.9,30.7,21.2,0002.7,0035.73,0010.42,0007.15
2021-09-20 08:51:00,,0824.1,5.00,0.00,28.9,28.3,00.0,37.9,30.7,21.1,0002.5,0035.67,0010.40,0007.15
2021-09-20 08:52:00,,0824.1,4.99,0.00,28.9,28.2,00.0,37.9,30.7,21.1,0002.5,0035.61,0010.40,0007.14
2021-09-20 08:53:00,,0824.1,5.01,0.00,28.9,28.3,00.0,37.9,30.7,21.1,0002.5,0032.63,0010.36,0007.14
2021-09-20 08:54:00,,0824.1,5.01,0.00,28.9,28.3,00.0,38.0,30.7,21.2,0002.9,0030.95,0010.37,0007.13
2021-09-20 08:55:00,,0824.1,5.00,0.00,28.9,28.3,00.0,38.0,30.7,21.2,0003.1,0030.27,0010.42,0007.12
2021-09-20 08:56:00,,0824.2,4.98,0.00,28.9,28.3,00.0,38.0,30.7,21.2,0003.3,0032.51,0010.32,0007.10
2021-09-20 08:57:00,,0824.2,5.00,0.00,28.9,28.3,00.0,38.0,30.7,21.2,0002.8,0032.60,0010.26,0007.09
2021-09-20 08:58:00,,0824.3,4.99,0.00,29.0,28.3,00.0,38.0,30.8,21.1,0002.5,0032.99,0010.25,0007.10
2021-09-20 08:59:00,,0824.3,5.00,0.00,29.0,28.4,00.0,38.0,30.8,21.1,0002.5,0032.46,0010.23,0007.10
